Regional Weather Roundup
Issued by NWS

Home | Current Version | Previous Version | Graphics & Text | Print | Product List | Glossary On
Versions: 1 2 3 4 5 6 7 8 9 10 11 12 13 14 15 16 17 18 19 20 21 22 23 24 25 26 27 28 29 30 31 32 33 34 35 36 37 38 39 40 41 42 43 44 45 46 47 48 49 50
000
ASUS43 KIND 040159
RWRIN

WEATHER ROUNDUP FOR INDIANA
NATIONAL WEATHER SERVICE INDIANAPOLIS IN
1000 PM EDT FRI JUL 03 2015

NOTE: "FAIR" INDICATES FEW OR NO CLOUDS BELOW 12,000 FEET WITH NO
SIGNIFICANT WEATHER AND/OR OBSTRUCTIONS TO VISIBILITY.

* - STATION DOES NOT REPORT WEATHER SUCH AS PRECIPITATION OR FOG.

+ - STATION NOT QUALITY CONTROLLED BY THE NATIONAL WEATHER SERVICE.
    USE DATA WITH CAUTION...ESPECIALLY DEWPOINT AND RELATIVE
    HUMIDITY OBSERVATIONS.

INZ001>003-010>013-019-020-040300-
NORTHWEST INDIANA

CITY           SKY/WX    TMP DP  RH WIND       PRES   REMARKS
GARY /AIRPORT/ MOCLDY    64  57  77 CALM      29.93S
RENSSELAER +   CLEAR     66  63  88 N5        29.92R

$$

LMZ046-743>745-040300-
SOUTHERN LAKE MICHIGAN

STATION/POSITION TIME  TEMP    WIND        PRES    WAVE
                       AIR SEA DIR/SP/G            HT
                 (UTC) (F)     (DEG/KT/KT) (MB)    (FT)
BURNS HARBOR     0100   65      70/  7/  8 1013.9F
MICHIGAN CITY    0100   63      50/  5/  5   N/A
5NW MICH CITY    0100   63 64  110/  4/  4   N/A     1

$$

INZ004-005-014>016-021>024-040300-
NORTH CENTRAL INDIANA

CITY           SKY/WX    TMP DP  RH WIND       PRES   REMARKS
GOSHEN         CLEAR     66  58  75 N3        29.92R
SOUTH BEND     CLEAR     64  55  72 N5        29.93S

$$

INZ006>009-017-018-025>027-040300-
NORTHEAST INDIANA

CITY           SKY/WX    TMP DP  RH WIND       PRES   REMARKS
ANGOLA *+        N/A     64  59  82 CALM      29.92S
FORT WAYNE     PTCLDY    67  60  78 CALM      29.91R

$$

INZ028-029-035-036-043>045-051>053-040300-
WEST CENTRAL INDIANA

CITY           SKY/WX    TMP DP  RH WIND       PRES   REMARKS
CRAWFORDSVL +  CLEAR     64  62  95 CALM      29.91S
GREENCASTLE +  MOCLDY    68  59  73 CALM      29.91S
LAFAYETTE      CLEAR     66  63  90 CALM      29.91R
TERRE HAUTE    CLEAR     70  66  87 N3        29.90R

$$

INZ030>032-037>040-046>048-054>057-064-065-040300-
CENTRAL INDIANA

CITY           SKY/WX    TMP DP  RH WIND       PRES   REMARKS
COLUMBUS       CLEAR     66  63  88 CALM      29.90
GREENWOOD *+   CLOUDY    70  64  83 CALM      29.91R
INDIANAPOLIS   CLOUDY    70  61  73 NE9       29.88S
-EAGLE CREEK   CLOUDY    69  63  81 N3        29.90R
KOKOMO *+      CLEAR     66  61  82 NE5       29.91R
MT COMFORT *+  MOCLDY    68  63  83 CALM      29.91R
SHELBYVILLE    CLEAR     67  64  90 CALM      29.89R

$$

INZ033-034-041-042-049-050-058-059-040300-
EAST CENTRAL INDIANA

CITY           SKY/WX    TMP DP  RH WIND       PRES   REMARKS
MUNCIE         CLOUDY    71  62  73 NE5       29.91R

$$

INZ060-061-067>069-081>083-085>088-040300-
SOUTHWEST INDIANA

CITY           SKY/WX    TMP DP  RH WIND       PRES   REMARKS
EVANSVILLE     LGT RAIN  74  70  87 NE8       29.89R FOG
HUNTINGBURG *+ MOCLDY    72  66  83 NE3       29.89R

$$

INZ062-063-066-070>080-084-089>092-040300-
SOUTH CENTRAL AND SOUTHEAST INDIANA

CITY           SKY/WX    TMP DP  RH WIND       PRES   REMARKS
BLOOMINGTON    PTCLDY    67  65  93 CALM      29.90R
MADISON *+     CLOUDY    68  63  83 CALM      29.90S
SEYMOUR +      CLOUDY    72  64  78 NE6       29.89R

$$




USA.gov is the U.S. government's official web portal to all federal, state and local government web resources and services.